• In Uzbekistan
  • List of Countries
  • For 7 days
  • Water Temperature
  • Satellite Maps
  • Weather Map
  • Weather Widgets
  • user-avatar
    Login

    Hourly Weather Goiania

    Today, 19 October, Friday

    Time Temperature Precipitation Wind Pressure Humidity
    00:00 +25°C° 1.5 mm 1 mps 697 mmHg 84%
    01:00 +25°C° 2.7 mm 1 mps 696 mmHg 84%
    02:00 +25°C° 2.7 mm 1 mps 696 mmHg 85%
    03:00 +23°C° 2.7 mm 0 mps 696 mmHg 85%
    04:00 +23°C° 0.2 mm 0 mps 696 mmHg 85%
    05:00 +25°C° 0.2 mm 1 mps 696 mmHg 85%
    06:00 +25°C° 0.2 mm 1 mps 697 mmHg 85%
    07:00 +25°C° 1.9 mm 1 mps 697 mmHg 83%
    08:00 +26°C° 1.9 mm 1 mps 698 mmHg 81%
    09:00 +27°C° 0 mm 2 mps 699 mmHg 77%
    10:00 +27°C° 1.4 mm 2 mps 698 mmHg 77%
    11:00 +27°C° 1.4 mm 1 mps 698 mmHg 76%
    12:00 +27°C° 1.4 mm 1 mps 698 mmHg 76%
    13:00 +27°C° 0.5 mm 1 mps 698 mmHg 77%
    14:00 +27°C° 0.5 mm 1 mps 697 mmHg 78%
    15:00 +27°C° 0.5 mm 1 mps 697 mmHg 79%
    16:00 +26°C° 0.3 mm 1 mps 696 mmHg 81%
    17:00 +26°C° 0.3 mm 1 mps 696 mmHg 83%
    18:00 +26°C° 0.3 mm 1 mps 696 mmHg 85%
    19:00 +25°C° 0 mm 1 mps 696 mmHg 86%
    20:00 +25°C° 0 mm 1 mps 697 mmHg 88%
    21:00 +24°C° 0 mm 1 mps 697 mmHg 89%
    22:00 +24°C° 0.1 mm 1 mps 697 mmHg 89%
    23:00 +22°C° 0.1 mm 0 mps 696 mmHg 90%

    Tomorrow, 20 October, Saturday

    Time Temperature Precipitation Wind Pressure Humidity
    00:00 +22°C° 0.1 mm 0 mps 696 mmHg 90%
    01:00 +21°C° 0.1 mm 0 mps 696 mmHg 90%
    02:00 +21°C° 0.1 mm 0 mps 695 mmHg 91%
    03:00 +21°C° 0.1 mm 0 mps 695 mmHg 91%
    04:00 +21°C° 0 mm 0 mps 695 mmHg 91%
    05:00 +21°C° 0 mm 0 mps 695 mmHg 92%
    06:00 +21°C° 0 mm 0 mps 695 mmHg 92%
    07:00 +24°C° 0 mm 1 mps 696 mmHg 86%
    08:00 +26°C° 0 mm 1 mps 697 mmHg 79%
    09:00 +28°C° 0 mm 1 mps 697 mmHg 73%
    10:00 +29°C° 0.3 mm 1 mps 697 mmHg 68%
    11:00 +30°C° 0.3 mm 1 mps 697 mmHg 64%
    12:00 +32°C° 0.3 mm 1 mps 697 mmHg 59%
    13:00 +31°C° 1.4 mm 1 mps 696 mmHg 61%
    14:00 +31°C° 1.4 mm 1 mps 695 mmHg 62%
    15:00 +31°C° 1.4 mm 1 mps 695 mmHg 63%
    16:00 +30°C° 2 mm 1 mps 695 mmHg 70%
    17:00 +28°C° 2 mm 1 mps 695 mmHg 76%
    18:00 +27°C° 2 mm 1 mps 695 mmHg 83%
    19:00 +26°C° 0.7 mm 1 mps 695 mmHg 84%
    20:00 +25°C° 0.7 mm 1 mps 696 mmHg 85%
    21:00 +25°C° 0.7 mm 1 mps 696 mmHg 86%
    22:00 +25°C° 0 mm 1 mps 696 mmHg 87%
    23:00 +24°C° 0 mm 1 mps 696 mmHg 88%

    Day after tomorrow, 21 October, Sunday

    Time Temperature Precipitation Wind Pressure Humidity
    00:00 +24°C° 0 mm 2 mps 696 mmHg 88%
    01:00 +24°C° 0 mm 2 mps 695 mmHg 89%
    02:00 +23°C° 0 mm 2 mps 695 mmHg 90%
    03:00 +23°C° 0 mm 2 mps 694 mmHg 91%
    04:00 +23°C° 0 mm 2 mps 695 mmHg 91%
    05:00 +22°C° 0 mm 3 mps 695 mmHg 91%
    06:00 +22°C° 0 mm 3 mps 695 mmHg 92%
    07:00 +24°C° 0 mm 3 mps 696 mmHg 87%
    08:00 +26°C° 0 mm 4 mps 697 mmHg 82%
    09:00 +27°C° 0 mm 5 mps 698 mmHg 77%
    10:00 +28°C° 0.1 mm 4 mps 697 mmHg 72%
    11:00 +30°C° 0.1 mm 4 mps 697 mmHg 66%
    12:00 +31°C° 0.1 mm 3 mps 697 mmHg 61%
    13:00 +31°C° 3.4 mm 3 mps 697 mmHg 63%
    14:00 +31°C° 3.4 mm 2 mps 696 mmHg 66%
    15:00 +30°C° 3.4 mm 2 mps 695 mmHg 69%
    16:00 +29°C° 3.2 mm 2 mps 695 mmHg 75%
    17:00 +27°C° 3.2 mm 2 mps 695 mmHg 80%
    18:00 +26°C° 3.2 mm 2 mps 695 mmHg 86%
    19:00 +25°C° 0.7 mm 3 mps 696 mmHg 87%
    20:00 +25°C° 0.7 mm 3 mps 696 mmHg 88%
    21:00 +24°C° 0.7 mm 3 mps 696 mmHg 88%
    22:00 +23°C° 0.3 mm 4 mps 697 mmHg 88%
    23:00 +23°C° 0.3 mm 4 mps 697 mmHg 88%

    22 October, Monday

    Time Temperature Precipitation Wind Pressure Humidity
    00:00 +23°C° 0.3 mm 4 mps 697 mmHg 87%
    01:00 +23°C° 0 mm 4 mps 697 mmHg 88%
    02:00 +22°C° 0 mm 4 mps 696 mmHg 89%
    03:00 +22°C° 0 mm 4 mps 696 mmHg 90%
    04:00 +22°C° 0 mm 4 mps 696 mmHg 90%
    05:00 +22°C° 0 mm 4 mps 697 mmHg 90%
    06:00 +22°C° 0 mm 4 mps 697 mmHg 90%
    07:00 +23°C° 0 mm 4 mps 698 mmHg 86%
    08:00 +25°C° 0 mm 5 mps 699 mmHg 82%
    09:00 +26°C° 0 mm 5 mps 699 mmHg 78%
    10:00 +27°C° 0 mm 5 mps 699 mmHg 75%
    11:00 +28°C° 0 mm 5 mps 699 mmHg 71%
    12:00 +29°C° 0 mm 4 mps 699 mmHg 68%
    13:00 +29°C° 0.5 mm 4 mps 698 mmHg 67%
    14:00 +30°C° 0.5 mm 4 mps 697 mmHg 65%
    15:00 +30°C° 0.5 mm 3 mps 697 mmHg 63%
    16:00 +29°C° 1.4 mm 3 mps 697 mmHg 70%
    17:00 +28°C° 1.4 mm 2 mps 697 mmHg 76%
    18:00 +26°C° 1.4 mm 1 mps 697 mmHg 82%
    19:00 +26°C° 1.3 mm 1 mps 697 mmHg 83%
    20:00 +25°C° 1.3 mm 1 mps 698 mmHg 85%
    21:00 +24°C° 1.3 mm 1 mps 698 mmHg 86%
    22:00 +24°C° 0.9 mm 1 mps 698 mmHg 87%
    23:00 +24°C° 0.9 mm 1 mps 698 mmHg 87%

    23 October, Tuesday

    Time Temperature Precipitation Wind Pressure Humidity
    00:00 +24°C° 0.9 mm 2 mps 698 mmHg 87%
    01:00 +24°C° 0.2 mm 2 mps 698 mmHg 87%
    02:00 +24°C° 0.2 mm 2 mps 697 mmHg 88%
    03:00 +24°C° 0.2 mm 1 mps 697 mmHg 88%
    04:00 +23°C° 0 mm 2 mps 697 mmHg 89%
    05:00 +23°C° 0 mm 2 mps 698 mmHg 89%
    06:00 +23°C° 0 mm 2 mps 698 mmHg 89%
    07:00 +24°C° 0.1 mm 2 mps 699 mmHg 85%
    08:00 +26°C° 0.1 mm 2 mps 699 mmHg 80%
    09:00 +27°C° 0.1 mm 3 mps 700 mmHg 75%
    10:00 +28°C° 0.7 mm 3 mps 700 mmHg 71%
    11:00 +29°C° 0.7 mm 3 mps 700 mmHg 67%
    12:00 +30°C° 0.7 mm 3 mps 699 mmHg 63%
    13:00 +30°C° 0.6 mm 3 mps 699 mmHg 63%
    14:00 +30°C° 0.6 mm 2 mps 698 mmHg 62%
    15:00 +30°C° 0.6 mm 2 mps 697 mmHg 62%
    16:00 +29°C° 1.3 mm 2 mps 697 mmHg 68%
    17:00 +28°C° 1.3 mm 1 mps 697 mmHg 75%
    18:00 +26°C° 1.3 mm 1 mps 697 mmHg 81%
    19:00 +26°C° 0.3 mm 1 mps 697 mmHg 82%
    20:00 +25°C° 0.3 mm 1 mps 698 mmHg 83%
    21:00 +25°C° 0.3 mm 1 mps 698 mmHg 85%
    22:00 +25°C° 0.1 mm 1 mps 698 mmHg 85%
    23:00 +24°C° 0.1 mm 1 mps 698 mmHg 86%

    24 October, Wednesday

    Time Temperature Precipitation Wind Pressure Humidity
    00:00 +24°C° 0.1 mm 1 mps 698 mmHg 87%
    01:00 +24°C° 0.3 mm 1 mps 697 mmHg 86%
    02:00 +24°C° 0.3 mm 1 mps 697 mmHg 86%
    03:00 +24°C° 0.3 mm 1 mps 697 mmHg 85%
    04:00 +24°C° 0.1 mm 1 mps 697 mmHg 85%
    05:00 +24°C° 0.1 mm 1 mps 697 mmHg 85%
    06:00 +24°C° 0.1 mm 1 mps 698 mmHg 85%
    07:00 +25°C° 0.2 mm 1 mps 698 mmHg 79%
    08:00 +27°C° 0.2 mm 2 mps 699 mmHg 74%
    09:00 +28°C° 0.2 mm 2 mps 699 mmHg 68%
    10:00 +29°C° 0.6 mm 2 mps 699 mmHg 65%
    11:00 +30°C° 0.6 mm 2 mps 699 mmHg 62%
    12:00 +31°C° 0.6 mm 3 mps 699 mmHg 58%
    13:00 +31°C° 1.3 mm 3 mps 698 mmHg 61%
    14:00 +30°C° 1.3 mm 2 mps 698 mmHg 64%
    15:00 +30°C° 1.3 mm 2 mps 697 mmHg 66%
    16:00 +29°C° 1.7 mm 2 mps 697 mmHg 72%
    17:00 +27°C° 1.7 mm 1 mps 697 mmHg 78%
    18:00 +24°C° 1.7 mm 0 mps 697 mmHg 84%
    19:00 +24°C° 0.5 mm 0 mps 697 mmHg 85%
    20:00 +23°C° 0.5 mm 0 mps 698 mmHg 85%
    21:00 +23°C° 0.5 mm 0 mps 698 mmHg 86%
    22:00 +23°C° 0.1 mm 0 mps 698 mmHg 86%
    23:00 +25°C° 0.1 mm 1 mps 698 mmHg 87%
    Show more